Location: Donzy-le-Pr�
(47.3659°N, 3.1107°E)
Time: 08:15:17
(UTC+00:00)

Cosmos 1602 - Pass Details

Date: 03 March 2021
Orbit: 512 x 534 km, 82.5° (Epoch: 14 April)

Event Time Altitude Azimuth Distance (km) Brightness Sun altitude
Rises 18:39:08 0° 194° (SSW) 2,650 7.5 -11.5°
Reaches altitude 10° 18:41:16 10° 197° (SSW) 1,770 6.6 -11.9°
Maximum altitude 18:45:08 67° 281° (W) 581 4.2 -12.5°
Drops below altitude 10° 18:49:04 10° 4° (N) 1,796 6.5 -13.2°
Sets 18:51:15 0° 7° (N) 2,693 7.3 -13.6°
